Retour au catalogue

NUSTAR

ActifScienceVLEO
NORAD 38358·PAYLOAD·🇺🇸 United States

Lancé Jun 13, 2012 depuis Ronald Reagan Space and Missile Test Range

Loading…

Prochains Passages (prochaines 24 heures)

TLE

FraisSource: Space-Track

Époque: Sep 14, 2026, 16:00 UTC

1 38358U 12031A   26257.66671296  .00005254  00000-0  26549-3 0  9994
2 38358   6.0257  82.5428 0007913 355.1263 129.3736 15.09532350  1301

Suivez NUSTAR en temps réel avec AllMySat

Download on the App Store